Time,TemperatureF,DewpointF,PressureIn,WindDirection,WindDirectionDegrees,WindSpeedMPH,WindSpeedGustMPH,Humidity,HourlyPrecipIn,Conditions,Clouds,dailyrainin,SolarRadiationWatts/m^2,SoftwareType,DateUTC
2013-04-28 00:12:00,37.0,22.0,-100.00,SE,142,1.0,3.0,54,-99.99,,,0.00,0.000000,,2013-04-28 06:12:00,
2013-04-28 00:21:00,37.0,22.0,-100.00,SE,142,1.0,3.0,54,-99.99,,,0.00,0.000000,,2013-04-28 06:21:00,
2013-04-28 01:11:00,37.0,25.0,-100.00,NNE,26,0.0,2.0,61,-99.99,,,0.00,0.000000,,2013-04-28 07:11:00,
2013-04-28 01:21:00,37.0,25.0,-100.00,NNE,26,0.0,2.0,61,-99.99,,,0.00,0.000000,,2013-04-28 07:21:00,
2013-04-28 02:11:00,35.0,25.0,-100.00,North,10,1.0,2.0,67,-99.99,,,0.00,0.000000,,2013-04-28 08:11:00,
2013-04-28 02:21:00,35.0,25.0,-100.00,North,10,1.0,2.0,67,-99.99,,,0.00,0.000000,,2013-04-28 08:21:00,
2013-04-28 03:11:00,36.0,26.0,-100.00,North,7,0.0,3.0,67,-99.99,,,0.00,0.000000,,2013-04-28 09:11:00,
2013-04-28 03:21:00,36.0,26.0,-100.00,North,7,0.0,3.0,67,-99.99,,,0.00,0.000000,,2013-04-28 09:21:00,
2013-04-28 04:12:00,35.0,27.0,-100.00,NNE,20,0.0,2.0,71,-99.99,,,0.00,0.000000,,2013-04-28 10:12:00,
2013-04-28 04:22:00,35.0,27.0,-100.00,NNE,20,0.0,2.0,71,-99.99,,,0.00,0.000000,,2013-04-28 10:22:00,
2013-04-28 04:32:00,35.0,27.0,-100.00,NNE,20,0.0,2.0,71,-99.99,,,0.00,0.000000,,2013-04-28 10:32:00,
2013-04-28 05:11:00,34.0,28.0,-100.00,North,353,1.0,3.0,79,-99.99,,,0.00,0.000000,,2013-04-28 11:11:00,
2013-04-28 05:21:00,34.0,28.0,-100.00,North,353,1.0,3.0,79,-99.99,,,0.00,0.000000,,2013-04-28 11:21:00,
2013-04-28 06:11:00,33.0,28.0,-100.00,North,8,0.0,3.0,80,-99.99,,,0.00,0.000000,,2013-04-28 12:11:00,
2013-04-28 06:21:00,33.0,28.0,-100.00,North,8,0.0,3.0,80,-99.99,,,0.00,0.000000,,2013-04-28 12:21:00,
2013-04-28 07:11:00,32.0,28.0,-100.00,North,2,0.0,2.0,84,0.00,,,0.00,4.000000,,2013-04-28 13:11:00,
2013-04-28 07:21:00,32.0,28.0,-100.00,North,2,0.0,2.0,84,0.00,,,0.00,4.000000,,2013-04-28 13:21:00,
2013-04-28 08:11:00,35.0,29.0,-100.00,North,6,0.0,0.0,80,-99.99,,,-99.99,44.000000,,2013-04-28 14:11:00,
2013-04-28 08:21:00,35.0,29.0,-100.00,North,6,0.0,0.0,80,-99.99,,,-99.99,44.000000,,2013-04-28 14:21:00,
2013-04-28 08:31:00,35.0,29.0,-100.00,North,6,0.0,0.0,80,-99.99,,,-99.99,44.000000,,2013-04-28 14:31:00,
2013-04-28 09:12:00,42.0,32.0,-100.00,NNW,340,0.0,0.0,67,-99.99,,,0.00,108.000000,,2013-04-28 15:12:00,
2013-04-28 09:21:00,42.0,32.0,-100.00,NNW,340,0.0,0.0,67,-99.99,,,0.00,108.000000,,2013-04-28 15:21:00,
2013-04-28 09:32:00,42.0,32.0,-100.00,NNW,340,0.0,0.0,67,-99.99,,,0.00,108.000000,,2013-04-28 15:32:00,
2013-04-28 09:42:00,42.0,32.0,-100.00,NNW,340,0.0,0.0,67,-99.99,,,0.00,108.000000,,2013-04-28 15:42:00,
2013-04-28 10:13:00,47.0,28.0,-100.00,North,351,1.0,3.0,47,0.00,,,0.00,163.000000,,2013-04-28 16:13:00,
2013-04-28 10:23:00,47.0,28.0,-100.00,North,351,1.0,3.0,47,0.00,,,0.00,163.000000,,2013-04-28 16:23:00,
2013-04-28 10:32:00,47.0,28.0,-100.00,North,351,1.0,3.0,47,0.00,,,0.00,163.000000,,2013-04-28 16:32:00,
2013-04-28 10:42:00,47.0,28.0,-100.00,North,351,1.0,3.0,47,0.00,,,0.00,163.000000,,2013-04-28 16:42:00,
2013-04-28 11:12:00,49.0,26.0,-100.00,West,271,4.0,8.0,40,0.00,,,0.00,222.000000,,2013-04-28 17:12:00,
2013-04-28 11:21:00,49.0,26.0,-100.00,West,271,4.0,8.0,40,0.00,,,0.00,222.000000,,2013-04-28 17:21:00,
2013-04-28 11:32:00,49.0,26.0,-100.00,West,271,4.0,8.0,40,0.00,,,0.00,222.000000,,2013-04-28 17:32:00,
2013-04-28 11:42:00,49.0,26.0,-100.00,West,271,4.0,8.0,40,0.00,,,0.00,222.000000,,2013-04-28 17:42:00,
2013-04-28 12:12:00,50.0,27.0,-100.00,West,261,5.0,13.0,41,0.00,,,0.00,346.000000,,2013-04-28 18:12:00,
2013-04-28 12:22:00,50.0,27.0,-100.00,West,261,5.0,13.0,41,0.00,,,0.00,346.000000,,2013-04-28 18:22:00,
2013-04-28 12:32:00,50.0,27.0,-100.00,West,261,5.0,13.0,41,0.00,,,0.00,346.000000,,2013-04-28 18:32:00,
2013-04-28 12:42:00,50.0,27.0,-100.00,West,261,5.0,13.0,41,0.00,,,0.00,346.000000,,2013-04-28 18:42:00,
2013-04-28 13:11:00,55.0,29.0,-100.00,SSW,199,3.0,10.0,37,0.00,,,0.00,620.000000,,2013-04-28 19:11:00,
2013-04-28 13:21:00,55.0,29.0,-100.00,SSW,199,3.0,10.0,37,0.00,,,0.00,620.000000,,2013-04-28 19:21:00,
2013-04-28 13:31:00,55.0,29.0,-100.00,SSW,199,3.0,10.0,37,0.00,,,0.00,620.000000,,2013-04-28 19:31:00,
2013-04-28 13:41:00,55.0,29.0,-100.00,SSW,199,3.0,10.0,37,0.00,,,0.00,620.000000,,2013-04-28 19:41:00,
2013-04-28 14:11:00,53.0,27.0,-100.00,West,262,5.0,11.0,37,0.00,,,0.00,589.000000,,2013-04-28 20:11:00,
2013-04-28 14:22:00,53.0,27.0,-100.00,West,262,5.0,11.0,37,0.00,,,0.00,589.000000,,2013-04-28 20:22:00,
2013-04-28 14:32:00,53.0,27.0,-100.00,West,262,5.0,11.0,37,0.00,,,0.00,589.000000,,2013-04-28 20:32:00,
2013-04-28 14:41:00,53.0,27.0,-100.00,West,262,5.0,11.0,37,0.00,,,0.00,589.000000,,2013-04-28 20:41:00,
2013-04-28 15:11:00,57.0,27.0,-100.00,SW,233,4.0,12.0,31,0.00,,,0.00,561.000000,,2013-04-28 21:11:00,
2013-04-28 15:22:00,57.0,27.0,-100.00,SW,233,4.0,12.0,31,0.00,,,0.00,561.000000,,2013-04-28 21:22:00,
2013-04-28 15:32:00,57.0,27.0,-100.00,SW,233,4.0,12.0,31,0.00,,,0.00,561.000000,,2013-04-28 21:32:00,
2013-04-28 15:42:00,57.0,27.0,-100.00,SW,233,4.0,12.0,31,0.00,,,0.00,561.000000,,2013-04-28 21:42:00,
2013-04-28 16:12:00,57.0,26.0,-100.00,West,261,6.0,14.0,30,0.00,,,0.00,629.000000,,2013-04-28 22:12:00,
2013-04-28 16:22:00,57.0,26.0,-100.00,West,261,6.0,14.0,30,0.00,,,0.00,629.000000,,2013-04-28 22:22:00,
2013-04-28 16:33:00,57.0,26.0,-100.00,West,261,6.0,14.0,30,0.00,,,0.00,629.000000,,2013-04-28 22:33:00,
2013-04-28 16:42:00,57.0,26.0,-100.00,West,261,6.0,14.0,30,0.00,,,0.00,629.000000,,2013-04-28 22:42:00,
2013-04-28 17:12:00,52.0,27.0,-100.00,West,270,3.0,16.0,38,0.00,,,0.00,298.000000,,2013-04-28 23:12:00,
2013-04-28 17:21:00,52.0,27.0,-100.00,West,270,3.0,16.0,38,0.00,,,0.00,298.000000,,2013-04-28 23:21:00,
2013-04-28 17:32:00,52.0,27.0,-100.00,West,270,3.0,16.0,38,0.00,,,0.00,298.000000,,2013-04-28 23:32:00,
2013-04-28 17:41:00,52.0,27.0,-100.00,West,270,3.0,16.0,38,0.00,,,0.00,298.000000,,2013-04-28 23:41:00,
2013-04-28 18:11:00,56.0,27.0,-100.00,SSW,200,5.0,13.0,32,0.00,,,0.00,419.000000,,2013-04-29 00:11:00,
2013-04-28 18:22:00,56.0,27.0,-100.00,SSW,200,5.0,13.0,32,0.00,,,0.00,419.000000,,2013-04-29 00:22:00,
2013-04-28 18:32:00,56.0,27.0,-100.00,SSW,200,5.0,13.0,32,0.00,,,0.00,419.000000,,2013-04-29 00:32:00,
2013-04-28 18:41:00,56.0,27.0,-100.00,SSW,200,5.0,13.0,32,0.00,,,0.00,419.000000,,2013-04-29 00:41:00,
2013-04-28 19:12:00,51.0,28.0,-100.00,WSW,256,4.0,15.0,40,0.00,,,0.00,107.000000,,2013-04-29 01:12:00,
2013-04-28 19:21:00,51.0,28.0,-100.00,WSW,256,4.0,15.0,40,0.00,,,0.00,107.000000,,2013-04-29 01:21:00,
2013-04-28 19:32:00,51.0,28.0,-100.00,WSW,256,4.0,15.0,40,0.00,,,0.00,107.000000,,2013-04-29 01:32:00,
2013-04-28 19:41:00,51.0,28.0,-100.00,WSW,256,4.0,15.0,40,0.00,,,0.00,107.000000,,2013-04-29 01:41:00,
2013-04-28 20:11:00,47.0,32.0,-100.00,South,182,4.0,12.0,55,0.00,,,0.00,46.000000,,2013-04-29 02:11:00,
2013-04-28 20:21:00,47.0,32.0,-100.00,South,182,4.0,12.0,55,0.00,,,0.00,46.000000,,2013-04-29 02:21:00,
2013-04-28 20:31:00,47.0,32.0,-100.00,South,182,4.0,12.0,55,0.00,,,0.00,46.000000,,2013-04-29 02:31:00,
2013-04-28 20:41:00,47.0,32.0,-100.00,South,182,4.0,12.0,55,0.00,,,0.00,46.000000,,2013-04-29 02:41:00,
2013-04-28 21:12:00,39.0,36.0,-100.00,West,267,0.0,9.0,90,0.01,,,0.01,12.000000,,2013-04-29 03:12:00,
2013-04-28 21:21:00,39.0,36.0,-100.00,West,267,0.0,9.0,90,0.01,,,0.01,12.000000,,2013-04-29 03:21:00,
2013-04-28 22:13:00,36.0,34.0,-100.00,NE,34,0.0,3.0,91,-99.99,,,0.01,0.000000,,2013-04-29 04:13:00,
2013-04-28 22:23:00,36.0,34.0,-100.00,NE,34,0.0,3.0,91,-99.99,,,0.01,0.000000,,2013-04-29 04:23:00,
2013-04-28 23:12:00,34.0,31.0,-100.00,North,351,1.0,4.0,89,-99.99,,,0.01,0.000000,,2013-04-29 05:12:00,
2013-04-28 23:22:00,34.0,31.0,-100.00,North,351,1.0,4.0,89,-99.99,,,0.01,0.000000,,2013-04-29 05:22:00,